This is the latest recevied weather packets stored in our database for station/object K9YK-13. If no packets are shown the sender has not sent any weather packets the latest 10 day(s).
| Time | Temp. | Humidity | Pressure | Rain* | Wind** | Luminosity | Snow |
|---|---|---|---|---|---|---|---|
| 1777813571 | 10.56° C | 68% | 0 hPa | 0 mm | - | - | - |
| 1777813271 | 10.56° C | 67% | 0 hPa | 0 mm | - | - | - |
| 1777812971 | 10° C | 69% | 0 hPa | 0 mm | - | - | - |
| 1777812671 | 10° C | 68% | 0 hPa | 0 mm | - | - | - |
| 1777812371 | 10° C | 69% | 0 hPa | 0 mm | - | - | - |
| 1777812071 | 10° C | 70% | 0 hPa | 0 mm | - | - | - |
| 1777811771 | 8.89° C | 69% | 0 hPa | 0 mm | - | - | - |
| 1777811471 | 8.89° C | 69% | 0 hPa | 0 mm | - | - | - |
| 1777811171 | 7.78° C | 70% | 0 hPa | 0 mm | - | - | - |
| 1777810871 | 7.78° C | 71% | 0 hPa | 0 mm | - | - | - |
| 1777810571 | 7.78° C | 71% | 0 hPa | 0 mm | - | - | - |
| 1777810271 | 7.78° C | 72% | 0 hPa | 0 mm | - | - | - |
| 1777809971 | 6.67° C | 73% | 0 hPa | 0 mm | - | - | - |
| 1777809671 | 7.78° C | 73% | 0 hPa | 0 mm | - | - | - |
| 1777809371 | 7.22° C | 74% | 0 hPa | 0 mm | - | - | - |
| 1777809071 | 5.56° C | 73% | 0 hPa | 0 mm | - | - | - |
| 1777808771 | 6.67° C | 73% | 0 hPa | 0 mm | - | - | - |
| 1777808471 | 6.67° C | 76% | 0 hPa | 0 mm | - | - | - |
| 1777808171 | 6.67° C | 74% | 0 hPa | 0 mm | - | - | - |
| 1777807871 | 5.56° C | 76% | 0 hPa | 0 mm | - | - | - |
| 1777807571 | 5.56° C | 79% | 0 hPa | 0 mm | - | - | - |
| 1777807271 | 5.56° C | 82% | 0 hPa | 0 mm | - | - | - |
| 1777806971 | 5° C | 76% | 0 hPa | 0 mm | - | - | - |
| 1777806671 | 5° C | 78% | 0 hPa | 0 mm | - | - | - |
| 1777806371 | 5° C | 82% | 0 hPa | 0 mm | - | - | - |
* Rain latest hour (hover to see other rain measurements)
** Current wind speed in m/s (hover to see current wind gust speed)